Time,TemperatureF,DewpointF,PressureIn,WindDirection,WindDirectionDegrees,WindSpeedMPH,WindSpeedGustMPH,Humidity,HourlyPrecipIn,Conditions,Clouds,dailyrainin,SoftwareType,DateUTC
2013-01-27 00:03:00,16.1,9.3,30.16,SE,126,0.0,0.0,74,0.00,,---,0.00,VWS V14.01,2013-01-27 06:03:00,
2013-01-27 00:08:00,15.9,9.1,30.16,SE,126,0.0,0.0,74,0.00,,---,0.00,VWS V14.01,2013-01-27 06:08:00,
2013-01-27 00:13:00,15.7,9.2,30.16,SE,126,0.0,0.0,75,0.00,,---,0.00,VWS V14.01,2013-01-27 06:13:00,
2013-01-27 00:18:00,15.4,8.9,30.16,SE,126,0.0,0.0,75,0.00,,---,0.00,VWS V14.01,2013-01-27 06:18:00,
2013-01-27 00:23:00,15.2,8.7,30.16,SE,126,0.0,0.0,75,0.00,,---,0.00,VWS V14.01,2013-01-27 06:23:00,
2013-01-27 00:28:00,15.1,8.9,30.16,SE,126,0.0,0.0,76,0.00,,---,0.00,VWS V14.01,2013-01-27 06:28:00,
2013-01-27 00:33:00,15.0,8.8,30.16,SE,126,0.0,0.0,76,0.00,,---,0.00,VWS V14.01,2013-01-27 06:33:00,
2013-01-27 00:38:00,15.0,8.8,30.16,SE,126,0.0,0.0,76,0.00,,---,0.00,VWS V14.01,2013-01-27 06:38:00,
2013-01-27 00:43:00,14.9,8.7,30.16,SE,126,0.0,0.0,76,0.00,,---,0.00,VWS V14.01,2013-01-27 06:43:00,
2013-01-27 00:48:00,14.9,8.7,30.15,SE,126,0.0,0.0,76,0.00,,---,0.00,VWS V14.01,2013-01-27 06:48:00,
2013-01-27 00:53:00,14.9,8.7,30.15,SE,126,0.0,0.0,76,0.00,,---,0.00,VWS V14.01,2013-01-27 06:53:00,
2013-01-27 00:58:00,14.9,8.7,30.15,SE,126,0.0,0.0,76,0.00,,---,0.00,VWS V14.01,2013-01-27 06:58:00,
2013-01-27 01:03:00,14.8,8.6,30.15,SE,126,0.0,0.0,76,0.00,,---,0.00,VWS V14.01,2013-01-27 07:03:00,
2013-01-27 01:08:00,14.7,8.5,30.15,SE,126,0.0,0.0,76,0.00,,---,0.00,VWS V14.01,2013-01-27 07:08:00,
2013-01-27 01:13:00,14.6,8.7,30.15,SE,126,0.0,0.0,77,0.00,,---,0.00,VWS V14.01,2013-01-27 07:13:00,
2013-01-27 01:18:00,14.5,8.6,30.15,SE,126,0.0,0.0,77,0.00,,---,0.00,VWS V14.01,2013-01-27 07:18:00,
2013-01-27 01:23:00,14.4,8.5,30.15,SE,126,0.0,0.0,77,0.00,,---,0.00,VWS V14.01,2013-01-27 07:23:00,
2013-01-27 01:28:00,14.3,8.4,30.15,SE,126,0.0,0.0,77,0.00,,---,0.00,VWS V14.01,2013-01-27 07:28:00,
2013-01-27 01:33:00,14.4,8.8,30.15,SE,126,0.0,0.0,78,0.00,,---,0.00,VWS V14.01,2013-01-27 07:33:00,
2013-01-27 01:38:00,14.4,8.8,30.15,SE,126,0.0,0.0,78,0.00,,---,0.00,VWS V14.01,2013-01-27 07:38:00,
2013-01-27 01:43:00,14.5,8.9,30.15,SE,126,0.0,0.0,78,0.00,,---,0.00,VWS V14.01,2013-01-27 07:43:00,
2013-01-27 01:48:00,14.8,9.5,30.14,SE,126,0.0,0.0,79,0.00,,---,0.00,VWS V14.01,2013-01-27 07:48:00,
2013-01-27 01:53:00,15.1,9.8,30.14,SE,126,0.0,0.0,79,0.00,,---,0.00,VWS V14.01,2013-01-27 07:53:00,
2013-01-27 01:58:00,15.4,9.8,30.14,SE,126,0.0,0.0,78,0.00,,---,0.00,VWS V14.01,2013-01-27 07:58:00,
2013-01-27 02:03:00,15.7,10.1,30.14,SE,126,0.0,0.0,78,0.00,,---,0.00,VWS V14.01,2013-01-27 08:03:00,
2013-01-27 02:08:00,16.1,10.2,30.14,SE,126,0.0,0.0,77,0.00,,---,0.00,VWS V14.01,2013-01-27 08:08:00,
2013-01-27 02:13:00,16.6,10.7,30.14,SE,126,0.0,0.0,77,0.00,,---,0.00,VWS V14.01,2013-01-27 08:13:00,
2013-01-27 02:18:00,17.1,10.9,30.14,SE,126,0.0,0.0,76,0.00,,---,0.00,VWS V14.01,2013-01-27 08:18:00,
2013-01-27 02:23:00,17.5,10.9,30.13,SE,126,0.0,1.0,75,0.00,,---,0.00,VWS V14.01,2013-01-27 08:23:00,
2013-01-27 02:28:00,17.8,10.9,30.13,SE,126,0.0,1.0,74,0.00,,---,0.00,VWS V14.01,2013-01-27 08:28:00,
2013-01-27 02:33:00,18.0,11.1,30.13,SE,126,0.0,0.0,74,0.00,,---,0.00,VWS V14.01,2013-01-27 08:33:00,
2013-01-27 02:38:00,18.1,10.9,30.13,SE,126,0.0,0.0,73,0.00,,---,0.00,VWS V14.01,2013-01-27 08:38:00,
2013-01-27 02:43:00,18.1,10.9,30.12,SE,126,0.0,1.0,73,0.00,,---,0.00,VWS V14.01,2013-01-27 08:43:00,
2013-01-27 02:48:00,18.1,10.9,30.12,SE,126,0.0,1.0,73,0.00,,---,0.00,VWS V14.01,2013-01-27 08:48:00,
2013-01-27 02:53:00,18.1,10.9,30.12,SE,126,0.0,1.0,73,0.00,,---,0.00,VWS V14.01,2013-01-27 08:53:00,
2013-01-27 02:58:00,18.1,10.6,30.12,SE,126,0.0,1.0,72,0.00,,---,0.00,VWS V14.01,2013-01-27 08:58:00,
2013-01-27 03:03:00,18.2,10.7,30.12,SE,126,0.0,0.0,72,0.00,,---,0.00,VWS V14.01,2013-01-27 09:03:00,
2013-01-27 03:08:00,18.1,10.6,30.11,SE,126,0.0,0.0,72,0.00,,---,0.00,VWS V14.01,2013-01-27 09:08:00,
2013-01-27 03:13:00,18.0,10.5,30.11,SE,126,0.0,0.0,72,0.00,,---,0.00,VWS V14.01,2013-01-27 09:13:00,
2013-01-27 03:18:00,17.9,10.7,30.11,SE,126,0.0,0.0,73,0.00,,---,0.00,VWS V14.01,2013-01-27 09:18:00,
2013-01-27 03:23:00,17.7,10.5,30.11,SE,126,0.0,0.0,73,0.00,,---,0.00,VWS V14.01,2013-01-27 09:23:00,
2013-01-27 03:28:00,17.5,10.3,30.11,SE,126,0.0,0.0,73,0.00,,---,0.00,VWS V14.01,2013-01-27 09:28:00,
2013-01-27 03:33:00,17.4,10.2,30.10,SE,126,0.0,0.0,73,0.00,,---,0.00,VWS V14.01,2013-01-27 09:33:00,
2013-01-27 03:38:00,17.2,10.1,30.10,SE,126,0.0,0.0,73,0.00,,---,0.00,VWS V14.01,2013-01-27 09:38:00,
2013-01-27 03:43:00,17.1,10.3,30.10,SE,126,0.0,0.0,74,0.00,,---,0.00,VWS V14.01,2013-01-27 09:43:00,
2013-01-27 03:48:00,17.0,10.2,30.10,SE,126,0.0,0.0,74,0.00,,---,0.00,VWS V14.01,2013-01-27 09:48:00,
2013-01-27 03:53:00,16.9,10.1,30.09,SE,126,0.0,0.0,74,0.00,,---,0.00,VWS V14.01,2013-01-27 09:53:00,
2013-01-27 03:58:00,16.7,9.9,30.09,SE,126,0.0,0.0,74,0.00,,---,0.00,VWS V14.01,2013-01-27 09:58:00,
2013-01-27 04:03:00,16.4,9.9,30.09,SE,126,0.0,0.0,75,0.00,,---,0.00,VWS V14.01,2013-01-27 10:03:00,
2013-01-27 04:08:00,16.2,9.7,30.09,SE,126,0.0,0.0,75,0.00,,---,0.00,VWS V14.01,2013-01-27 10:08:00,
2013-01-27 04:13:00,16.1,9.6,30.09,SE,126,0.0,0.0,75,0.00,,---,0.00,VWS V14.01,2013-01-27 10:13:00,
2013-01-27 04:18:00,15.9,9.7,30.08,SE,126,0.0,0.0,76,0.00,,---,0.00,VWS V14.01,2013-01-27 10:18:00,
2013-01-27 04:23:00,15.8,9.6,30.08,SE,126,0.0,0.0,76,0.00,,---,0.00,VWS V14.01,2013-01-27 10:23:00,
2013-01-27 04:28:00,15.8,9.6,30.08,SE,126,0.0,0.0,76,0.00,,---,0.00,VWS V14.01,2013-01-27 10:28:00,
2013-01-27 04:33:00,15.8,9.6,30.07,SE,126,0.0,0.0,76,0.00,,---,0.00,VWS V14.01,2013-01-27 10:33:00,
2013-01-27 04:38:00,15.9,10.0,30.07,SE,126,0.0,0.0,77,0.00,,---,0.00,VWS V14.01,2013-01-27 10:38:00,
2013-01-27 04:43:00,16.1,10.2,30.07,SE,126,0.0,0.0,77,0.00,,---,0.00,VWS V14.01,2013-01-27 10:43:00,
2013-01-27 04:48:00,16.3,10.1,30.07,SE,126,0.0,0.0,76,0.00,,---,0.00,VWS V14.01,2013-01-27 10:48:00,
2013-01-27 04:53:00,16.4,10.2,30.07,SE,126,0.0,0.0,76,0.00,,---,0.00,VWS V14.01,2013-01-27 10:53:00,
2013-01-27 04:58:00,16.5,10.3,30.07,SE,126,0.0,0.0,76,0.00,,---,0.00,VWS V14.01,2013-01-27 10:58:00,
2013-01-27 05:03:00,16.6,10.4,30.07,SE,126,0.0,0.0,76,0.00,,---,0.00,VWS V14.01,2013-01-27 11:03:00,
2013-01-27 05:08:00,16.7,10.5,30.07,SE,126,0.0,0.0,76,0.00,,---,0.00,VWS V14.01,2013-01-27 11:08:00,
2013-01-27 05:13:00,16.8,10.6,30.06,SE,126,0.0,0.0,76,0.00,,---,0.00,VWS V14.01,2013-01-27 11:13:00,
2013-01-27 05:18:00,17.0,10.8,30.06,SE,126,0.0,1.0,76,0.00,,---,0.00,VWS V14.01,2013-01-27 11:18:00,
2013-01-27 05:23:00,17.1,10.6,30.05,SE,126,0.0,1.0,75,0.00,,---,0.00,VWS V14.01,2013-01-27 11:23:00,
2013-01-27 05:28:00,17.1,10.6,30.05,SE,126,0.0,1.0,75,0.00,,---,0.00,VWS V14.01,2013-01-27 11:28:00,
2013-01-27 05:33:00,17.0,10.5,30.05,SE,126,0.0,0.0,75,0.00,,---,0.00,VWS V14.01,2013-01-27 11:33:00,
2013-01-27 05:38:00,17.0,10.5,30.05,SE,126,0.0,0.0,75,0.00,,---,0.00,VWS V14.01,2013-01-27 11:38:00,
2013-01-27 05:43:00,17.3,11.1,30.05,SE,126,0.0,1.0,76,0.00,,---,0.00,VWS V14.01,2013-01-27 11:43:00,
2013-01-27 05:48:00,17.6,11.0,30.05,SE,126,0.0,1.0,75,0.00,,---,0.00,VWS V14.01,2013-01-27 11:48:00,
2013-01-27 05:53:00,18.0,11.4,30.04,SE,126,0.0,2.0,75,0.00,,---,0.00,VWS V14.01,2013-01-27 11:53:00,
2013-01-27 05:58:00,18.3,11.4,30.04,SE,126,0.0,2.0,74,0.00,,---,0.00,VWS V14.01,2013-01-27 11:58:00,
2013-01-27 06:03:00,18.5,11.6,30.05,SE,126,0.0,0.0,74,0.00,,---,0.00,VWS V14.01,2013-01-27 12:03:00,
2013-01-27 06:08:00,18.6,11.7,30.05,SE,126,1.0,1.0,74,0.00,,---,0.00,VWS V14.01,2013-01-27 12:08:00,
2013-01-27 06:13:00,18.8,11.6,30.04,SE,126,0.0,1.0,73,0.00,,---,0.00,VWS V14.01,2013-01-27 12:13:00,
2013-01-27 06:18:00,18.8,11.6,30.05,SE,126,0.0,1.0,73,0.00,,---,0.00,VWS V14.01,2013-01-27 12:18:00,
2013-01-27 06:23:00,18.8,11.6,30.05,SE,131,0.0,2.0,73,0.00,,---,0.00,VWS V14.01,2013-01-27 12:23:00,
2013-01-27 06:28:00,18.9,11.7,30.05,SE,131,0.0,2.0,73,0.00,,---,0.00,VWS V14.01,2013-01-27 12:28:00,
2013-01-27 06:33:00,18.9,11.7,30.04,SE,130,0.0,1.0,73,0.00,,---,0.00,VWS V14.01,2013-01-27 12:33:00,
2013-01-27 06:38:00,19.1,11.9,30.05,SE,131,0.0,1.0,73,0.00,,---,0.00,VWS V14.01,2013-01-27 12:38:00,
2013-01-27 06:43:00,19.1,11.9,30.05,SE,130,0.0,1.0,73,0.00,,---,0.00,VWS V14.01,2013-01-27 12:43:00,
2013-01-27 06:48:00,19.1,11.9,30.04,SE,130,0.0,1.0,73,0.00,,---,0.00,VWS V14.01,2013-01-27 12:48:00,
2013-01-27 06:53:00,19.1,11.9,30.04,SE,130,0.0,1.0,73,0.00,,---,0.00,VWS V14.01,2013-01-27 12:53:00,
2013-01-27 06:58:00,19.0,11.8,30.04,SE,130,0.0,1.0,73,0.00,,---,0.00,VWS V14.01,2013-01-27 12:58:00,
2013-01-27 07:03:00,18.8,11.6,30.04,SE,131,0.0,0.0,73,0.00,,---,0.00,VWS V14.01,2013-01-27 13:03:00,
2013-01-27 07:07:00,18.7,11.5,30.04,SE,131,0.0,0.0,73,0.00,,---,0.00,VWS V14.01,2013-01-27 13:07:00,
2013-01-27 07:12:00,18.5,11.3,30.04,SE,130,0.0,0.0,73,0.00,,---,0.00,VWS V14.01,2013-01-27 13:12:00,
2013-01-27 07:18:00,18.3,11.4,30.03,SE,131,0.0,0.0,74,0.00,,---,0.00,VWS V14.01,2013-01-27 13:18:00,
2013-01-27 07:23:00,18.1,11.2,30.04,SE,131,0.0,0.0,74,0.00,,---,0.00,VWS V14.01,2013-01-27 13:23:00,
2013-01-27 07:28:00,17.9,11.3,30.03,SE,130,0.0,0.0,75,0.00,,---,0.00,VWS V14.01,2013-01-27 13:28:00,
2013-01-27 07:33:00,17.9,11.3,30.04,SE,130,0.0,0.0,75,0.00,,---,0.00,VWS V14.01,2013-01-27 13:33:00,
2013-01-27 07:38:00,17.7,11.1,30.04,SE,130,0.0,0.0,75,0.00,,---,0.00,VWS V14.01,2013-01-27 13:38:00,
2013-01-27 07:43:00,17.5,10.9,30.04,SE,131,0.0,0.0,75,0.00,,---,0.00,VWS V14.01,2013-01-27 13:43:00,
2013-01-27 07:48:00,17.2,10.6,30.04,SE,130,0.0,0.0,75,0.00,,---,0.00,VWS V14.01,2013-01-27 13:48:00,
2013-01-27 07:53:00,17.1,10.9,30.04,SE,130,0.0,0.0,76,0.00,,---,0.00,VWS V14.01,2013-01-27 13:53:00,
2013-01-27 07:58:00,17.0,10.8,30.04,SE,131,0.0,0.0,76,0.00,,---,0.00,VWS V14.01,2013-01-27 13:58:00,
2013-01-27 08:03:00,17.1,11.1,30.04,SE,131,0.0,0.0,77,0.00,,---,0.00,VWS V14.01,2013-01-27 14:03:00,
2013-01-27 08:08:00,17.2,11.2,30.04,SE,130,0.0,0.0,77,0.00,,---,0.00,VWS V14.01,2013-01-27 14:08:00,
2013-01-27 08:12:00,17.5,11.5,30.04,SE,131,0.0,0.0,77,0.00,,---,0.00,VWS V14.01,2013-01-27 14:12:00,
2013-01-27 08:18:00,17.7,11.4,30.04,SE,131,0.0,0.0,76,0.00,,---,0.00,VWS V14.01,2013-01-27 14:18:00,
2013-01-27 08:23:00,17.8,11.5,30.04,SE,131,0.0,0.0,76,0.00,,---,0.00,VWS V14.01,2013-01-27 14:23:00,
2013-01-27 08:28:00,18.0,11.7,30.04,SE,130,0.0,0.0,76,0.00,,---,0.00,VWS V14.01,2013-01-27 14:28:00,
2013-01-27 08:33:00,18.1,11.8,30.04,SE,130,0.0,0.0,76,0.00,,---,0.00,VWS V14.01,2013-01-27 14:33:00,
2013-01-27 08:37:00,18.3,12.0,30.03,SE,131,0.0,0.0,76,0.00,,---,0.00,VWS V14.01,2013-01-27 14:37:00,
2013-01-27 08:42:00,18.6,12.0,30.03,SE,131,0.0,0.0,75,0.00,,---,0.00,VWS V14.01,2013-01-27 14:42:00,
2013-01-27 08:47:00,18.9,12.3,30.03,SE,131,0.0,0.0,75,0.00,,---,0.00,VWS V14.01,2013-01-27 14:47:00,
2013-01-27 08:52:00,19.1,12.5,30.03,SE,130,0.0,0.0,75,0.00,,---,0.00,VWS V14.01,2013-01-27 14:52:00,
2013-01-27 08:57:00,19.4,12.8,30.03,SE,131,0.0,0.0,75,0.00,,---,0.00,VWS V14.01,2013-01-27 14:57:00,
2013-01-27 09:02:00,19.7,12.8,30.03,SE,131,0.0,0.0,74,0.00,,---,0.00,VWS V14.01,2013-01-27 15:02:00,
2013-01-27 09:07:00,19.8,12.9,30.02,SE,130,0.0,0.0,74,0.00,,---,0.00,VWS V14.01,2013-01-27 15:07:00,
2013-01-27 09:12:00,20.0,13.1,30.02,SE,131,0.0,0.0,74,0.00,,---,0.00,VWS V14.01,2013-01-27 15:12:00,
2013-01-27 09:17:00,20.3,13.0,30.02,SE,130,0.0,0.0,73,0.00,,---,0.00,VWS V14.01,2013-01-27 15:17:00,
2013-01-27 09:22:00,20.6,13.3,30.01,SE,131,0.0,0.0,73,0.00,,---,0.00,VWS V14.01,2013-01-27 15:22:00,
2013-01-27 09:27:00,21.0,13.7,30.01,SE,130,0.0,1.0,73,0.00,,---,0.00,VWS V14.01,2013-01-27 15:27:00,
2013-01-27 09:32:00,21.5,14.2,30.01,SE,130,0.0,0.0,73,0.00,,---,0.00,VWS V14.01,2013-01-27 15:32:00,
2013-01-27 09:37:00,22.0,14.4,30.01,SE,131,0.0,0.0,72,0.00,,---,0.00,VWS V14.01,2013-01-27 15:37:00,
2013-01-27 09:42:00,22.4,14.8,30.01,SE,131,0.0,0.0,72,0.00,,---,0.00,VWS V14.01,2013-01-27 15:42:00,
2013-01-27 09:48:00,22.7,14.7,30.01,SE,130,0.0,1.0,71,0.00,,---,0.00,VWS V14.01,2013-01-27 15:48:00,
2013-01-27 09:53:00,23.0,15.0,30.00,SE,131,0.0,1.0,71,0.00,,---,0.00,VWS V14.01,2013-01-27 15:53:00,
2013-01-27 09:58:00,23.3,15.3,30.00,SE,131,0.0,1.0,71,0.00,,---,0.00,VWS V14.01,2013-01-27 15:58:00,
2013-01-27 10:03:00,23.6,15.3,30.00,SE,131,0.0,0.0,70,0.00,,---,0.00,VWS V14.01,2013-01-27 16:03:00,
2013-01-27 10:08:00,23.9,15.6,30.00,SE,131,0.0,1.0,70,0.00,,---,0.00,VWS V14.01,2013-01-27 16:08:00,
2013-01-27 10:13:00,24.2,15.5,30.00,SE,132,0.0,2.0,69,0.00,,---,0.00,VWS V14.01,2013-01-27 16:13:00,
2013-01-27 10:18:00,24.4,15.7,30.00,SE,132,0.0,2.0,69,0.00,,---,0.00,VWS V14.01,2013-01-27 16:18:00,
2013-01-27 10:22:00,24.7,16.0,30.00,SE,132,0.0,2.0,69,0.00,,---,0.00,VWS V14.01,2013-01-27 16:22:00,
2013-01-27 10:27:00,25.1,16.4,30.00,SE,132,0.0,2.0,69,0.00,,---,0.00,VWS V14.01,2013-01-27 16:27:00,
2013-01-27 10:33:00,25.5,16.4,30.00,SE,132,0.0,1.0,68,0.00,,---,0.00,VWS V14.01,2013-01-27 16:33:00,
2013-01-27 10:38:00,25.9,16.8,29.99,SE,132,0.0,1.0,68,0.00,,---,0.00,VWS V14.01,2013-01-27 16:38:00,
2013-01-27 10:42:00,26.2,16.8,29.99,SE,132,0.0,2.0,67,0.00,,---,0.00,VWS V14.01,2013-01-27 16:42:00,
2013-01-27 10:47:00,26.5,17.0,29.99,SE,132,0.0,2.0,67,0.00,,---,0.00,VWS V14.01,2013-01-27 16:47:00,
2013-01-27 10:52:00,26.8,17.3,29.99,SE,143,1.0,2.0,67,0.00,,---,0.00,VWS V14.01,2013-01-27 16:52:00,
2013-01-27 10:57:00,27.1,17.3,29.99,SE,136,0.0,2.0,66,0.00,,---,0.00,VWS V14.01,2013-01-27 16:57:00,
2013-01-27 11:02:00,27.4,17.5,29.99,SE,136,1.0,3.0,66,0.00,,---,0.00,VWS V14.01,2013-01-27 17:02:00,
2013-01-27 11:07:00,27.6,18.1,29.99,SE,136,1.0,3.0,67,0.00,,---,0.00,VWS V14.01,2013-01-27 17:07:00,
2013-01-27 11:12:00,27.9,18.0,29.99,ESE,107,1.0,3.0,66,0.00,,---,0.00,VWS V14.01,2013-01-27 17:12:00,
2013-01-27 11:17:00,28.0,18.1,29.99,ESE,123,0.0,6.0,66,0.00,,---,0.00,VWS V14.01,2013-01-27 17:17:00,
2013-01-27 11:22:00,28.1,18.2,29.99,ESE,118,2.0,6.0,66,0.00,,---,0.00,VWS V14.01,2013-01-27 17:22:00,
2013-01-27 11:27:00,28.4,18.5,29.99,SSE,150,2.0,6.0,66,0.00,,---,0.00,VWS V14.01,2013-01-27 17:27:00,
2013-01-27 11:32:00,28.5,18.2,29.98,SE,130,0.0,1.0,65,0.00,,---,0.00,VWS V14.01,2013-01-27 17:32:00,
2013-01-27 11:37:00,28.7,18.4,29.98,ESE,117,0.0,4.0,65,0.00,,---,0.00,VWS V14.01,2013-01-27 17:37:00,
2013-01-27 11:42:00,28.8,18.5,29.98,SE,133,2.0,5.0,65,0.00,,---,0.00,VWS V14.01,2013-01-27 17:42:00,
2013-01-27 11:47:00,29.0,18.7,29.98,SE,139,0.0,5.0,65,0.00,,---,0.00,VWS V14.01,2013-01-27 17:47:00,
2013-01-27 11:52:00,29.2,18.9,29.98,SE,138,0.0,5.0,65,0.00,,---,0.00,VWS V14.01,2013-01-27 17:52:00,
2013-01-27 11:57:00,29.4,19.1,29.97,SE,134,1.0,5.0,65,0.00,,---,0.00,VWS V14.01,2013-01-27 17:57:00,
2013-01-27 12:02:00,29.6,19.3,29.97,SE,126,0.0,3.0,65,0.00,,---,0.00,VWS V14.01,2013-01-27 18:02:00,
2013-01-27 12:07:00,29.8,19.5,29.97,SE,131,0.0,3.0,65,0.00,,---,0.00,VWS V14.01,2013-01-27 18:07:00,
2013-01-27 12:12:00,30.1,19.8,29.97,ESE,117,1.0,5.0,65,0.00,,---,0.00,VWS V14.01,2013-01-27 18:12:00,
2013-01-27 12:17:00,30.2,19.9,29.97,SSE,155,0.0,5.0,65,0.00,,---,0.00,VWS V14.01,2013-01-27 18:17:00,
2013-01-27 12:22:00,30.4,20.1,29.96,SSE,158,0.0,5.0,65,0.00,,---,0.00,VWS V14.01,2013-01-27 18:22:00,
2013-01-27 12:27:00,30.7,20.0,29.96,South,184,0.0,5.0,64,0.00,,---,0.00,VWS V14.01,2013-01-27 18:27:00,
2013-01-27 12:32:00,30.8,20.1,29.96,SE,138,0.0,2.0,64,0.00,,---,0.00,VWS V14.01,2013-01-27 18:32:00,
2013-01-27 12:37:00,31.1,20.4,29.95,SE,138,0.0,2.0,64,0.00,,---,0.00,VWS V14.01,2013-01-27 18:37:00,
2013-01-27 12:42:00,31.3,20.5,29.95,SE,128,1.0,3.0,64,0.00,,---,0.00,VWS V14.01,2013-01-27 18:42:00,
2013-01-27 12:47:00,31.2,20.5,29.95,SE,134,0.0,5.0,64,0.00,,---,0.00,VWS V14.01,2013-01-27 18:47:00,
2013-01-27 12:52:00,31.2,20.5,29.95,SSE,167,1.0,5.0,64,0.00,,---,0.00,VWS V14.01,2013-01-27 18:52:00,
2013-01-27 12:57:00,31.2,20.8,29.95,SSE,150,0.0,5.0,65,0.00,,---,0.00,VWS V14.01,2013-01-27 18:57:00,
2013-01-27 13:02:00,31.4,20.6,29.95,SE,140,0.0,2.0,64,0.00,,---,0.00,VWS V14.01,2013-01-27 19:02:00,
2013-01-27 13:07:00,31.6,20.8,29.95,SE,127,2.0,3.0,64,0.00,,---,0.00,VWS V14.01,2013-01-27 19:07:00,
2013-01-27 13:12:00,31.7,20.9,29.95,SE,127,0.0,3.0,64,0.00,,---,0.00,VWS V14.01,2013-01-27 19:12:00,
2013-01-27 13:17:00,31.7,20.9,29.95,East,101,0.0,5.0,64,0.00,,---,0.00,VWS V14.01,2013-01-27 19:17:00,
2013-01-27 13:22:00,31.6,20.8,29.95,SE,130,3.0,6.0,64,0.00,,---,0.00,VWS V14.01,2013-01-27 19:22:00,
2013-01-27 13:27:00,31.6,20.8,29.95,SSE,155,3.0,6.0,64,0.00,,---,0.00,VWS V14.01,2013-01-27 19:27:00,
2013-01-27 13:32:00,31.6,21.2,29.94,ESE,117,0.0,2.0,65,0.00,,---,0.00,VWS V14.01,2013-01-27 19:32:00,
2013-01-27 13:37:00,31.5,21.1,29.93,SSE,148,0.0,5.0,65,0.00,,---,0.00,VWS V14.01,2013-01-27 19:37:00,
2013-01-27 13:42:00,31.4,21.4,29.93,SSE,163,0.0,5.0,66,0.00,,---,0.00,VWS V14.01,2013-01-27 19:42:00,
2013-01-27 13:47:00,31.4,21.4,29.93,SE,134,1.0,5.0,66,0.00,,---,0.00,VWS V14.01,2013-01-27 19:47:00,
2013-01-27 13:52:00,31.4,21.0,29.93,SE,138,0.0,5.0,65,0.00,,---,0.00,VWS V14.01,2013-01-27 19:52:00,
2013-01-27 13:57:00,31.5,21.5,29.92,South,171,0.0,5.0,66,0.00,,---,0.00,VWS V14.01,2013-01-27 19:57:00,
2013-01-27 14:02:00,31.5,21.5,29.92,SE,132,0.0,1.0,66,0.00,,---,0.00,VWS V14.01,2013-01-27 20:02:00,
2013-01-27 14:08:00,31.5,21.8,29.92,SE,144,0.0,4.0,67,0.00,,---,0.00,VWS V14.01,2013-01-27 20:08:00,
2013-01-27 14:13:00,31.6,21.9,29.92,SE,144,0.0,4.0,67,0.00,,---,0.00,VWS V14.01,2013-01-27 20:13:00,
2013-01-27 14:18:00,31.5,21.1,29.92,SSE,161,3.0,5.0,65,0.00,,---,0.00,VWS V14.01,2013-01-27 20:18:00,
2013-01-27 14:23:00,31.5,21.5,29.91,SSE,159,0.0,5.0,66,0.00,,---,0.00,VWS V14.01,2013-01-27 20:23:00,
2013-01-27 14:28:00,31.6,21.6,29.90,SSE,159,0.0,5.0,66,0.00,,---,0.00,VWS V14.01,2013-01-27 20:28:00,
2013-01-27 14:32:00,31.8,22.1,29.90,SSE,159,0.0,1.0,67,0.00,,---,0.00,VWS V14.01,2013-01-27 20:32:00,
2013-01-27 14:38:00,31.8,21.8,29.90,SSE,156,0.0,1.0,66,0.00,,---,0.00,VWS V14.01,2013-01-27 20:38:00,
2013-01-27 14:42:00,31.8,21.8,29.90,SE,137,0.0,3.0,66,0.00,,---,0.00,VWS V14.01,2013-01-27 20:42:00,
2013-01-27 14:47:00,31.8,22.1,29.90,East,95,0.0,9.0,67,0.00,,---,0.00,VWS V14.01,2013-01-27 20:47:00,
2013-01-27 14:52:00,31.8,22.1,29.90,SE,126,0.0,9.0,67,0.00,,---,0.00,VWS V14.01,2013-01-27 20:52:00,
2013-01-27 14:57:00,31.8,21.8,29.90,SE,126,0.0,9.0,66,0.00,,---,0.00,VWS V14.01,2013-01-27 20:57:00,
2013-01-27 15:02:00,31.9,22.2,29.90,SE,126,0.0,0.0,67,0.00,,---,0.00,VWS V14.01,2013-01-27 21:02:00,
2013-01-27 15:07:00,32.0,22.3,29.90,SE,126,0.0,1.0,67,0.00,,---,0.00,VWS V14.01,2013-01-27 21:07:00,
2013-01-27 15:12:00,32.0,22.3,29.90,SE,126,0.0,1.0,67,0.00,,---,0.00,VWS V14.01,2013-01-27 21:12:00,
2013-01-27 15:17:00,32.0,22.3,29.91,SE,126,0.0,1.0,67,0.00,,---,0.00,VWS V14.01,2013-01-27 21:17:00,
2013-01-27 15:22:00,32.0,22.6,29.90,SE,126,0.0,1.0,68,0.00,,---,0.00,VWS V14.01,2013-01-27 21:22:00,
2013-01-27 15:27:00,31.9,22.2,29.90,ESE,123,0.0,2.0,67,0.00,,---,0.00,VWS V14.01,2013-01-27 21:27:00,
2013-01-27 15:32:00,31.9,22.5,29.90,ESE,123,0.0,1.0,68,0.00,,---,0.00,VWS V14.01,2013-01-27 21:32:00,
2013-01-27 15:37:00,31.8,22.1,29.90,ESE,119,0.0,3.0,67,0.00,,---,0.00,VWS V14.01,2013-01-27 21:37:00,
2013-01-27 15:42:00,31.8,22.1,29.90,SE,132,0.0,3.0,67,0.00,,---,0.00,VWS V14.01,2013-01-27 21:42:00,
2013-01-27 15:47:00,31.7,22.4,29.90,ENE,78,2.0,3.0,68,0.00,,---,0.00,VWS V14.01,2013-01-27 21:47:00,
2013-01-27 15:52:00,31.7,22.4,29.90,ESE,109,0.0,3.0,68,0.00,,---,0.00,VWS V14.01,2013-01-27 21:52:00,
2013-01-27 15:57:00,31.7,22.4,29.90,SE,129,0.0,3.0,68,0.00,,---,0.00,VWS V14.01,2013-01-27 21:57:00,
2013-01-27 16:02:00,31.7,22.4,29.90,SE,128,0.0,2.0,68,0.00,,---,0.00,VWS V14.01,2013-01-27 22:02:00,
2013-01-27 16:07:00,31.6,22.6,29.89,ESE,113,0.0,2.0,69,0.00,,---,0.00,VWS V14.01,2013-01-27 22:07:00,
2013-01-27 16:12:00,31.5,22.5,29.89,ESE,118,0.0,3.0,69,0.00,,---,0.00,VWS V14.01,2013-01-27 22:12:00,
2013-01-27 16:17:00,31.5,22.5,29.90,ESE,119,0.0,3.0,69,0.00,,---,0.00,VWS V14.01,2013-01-27 22:17:00,
2013-01-27 16:22:00,31.5,22.5,29.89,ESE,111,0.0,3.0,69,0.00,,---,0.00,VWS V14.01,2013-01-27 22:22:00,
2013-01-27 16:27:00,31.5,22.9,29.89,SSE,155,0.0,4.0,70,0.00,,---,0.00,VWS V14.01,2013-01-27 22:27:00,
2013-01-27 16:32:00,31.4,23.1,29.89,SE,141,0.0,2.0,71,0.00,,---,0.00,VWS V14.01,2013-01-27 22:32:00,
2013-01-27 16:37:00,31.3,23.3,29.89,SSE,163,0.0,3.0,72,0.00,,---,0.00,VWS V14.01,2013-01-27 22:37:00,
2013-01-27 16:42:00,31.2,23.6,29.89,ESE,113,0.0,3.0,73,0.00,,---,0.00,VWS V14.01,2013-01-27 22:42:00,
2013-01-27 16:47:00,31.1,23.8,29.89,ESE,109,0.0,3.0,74,0.00,,---,0.00,VWS V14.01,2013-01-27 22:47:00,
2013-01-27 16:52:00,31.0,24.0,29.88,ESE,109,0.0,3.0,75,0.00,,---,0.00,VWS V14.01,2013-01-27 22:52:00,
2013-01-27 16:57:00,30.9,24.2,29.89,ESE,109,0.0,3.0,76,0.00,,---,0.00,VWS V14.01,2013-01-27 22:57:00,
2013-01-27 17:02:00,30.8,24.1,29.89,ESE,109,0.0,0.0,76,0.00,,---,0.00,VWS V14.01,2013-01-27 23:02:00,
2013-01-27 17:07:00,30.7,24.0,29.88,ESE,109,0.0,2.0,76,0.00,,---,0.00,VWS V14.01,2013-01-27 23:07:00,
2013-01-27 17:12:00,30.7,24.4,29.88,ESE,109,0.0,2.0,77,0.00,,---,0.00,VWS V14.01,2013-01-27 23:12:00,
2013-01-27 17:17:00,30.6,24.3,29.88,ESE,109,0.0,2.0,77,0.00,,---,0.00,VWS V14.01,2013-01-27 23:17:00,
2013-01-27 17:22:00,30.6,24.3,29.88,ESE,109,0.0,2.0,77,0.00,,---,0.00,VWS V14.01,2013-01-27 23:22:00,
2013-01-27 17:27:00,30.5,24.5,29.88,ESE,107,0.0,2.0,78,0.00,,---,0.00,VWS V14.01,2013-01-27 23:27:00,
2013-01-27 17:32:00,30.5,24.5,29.88,ESE,107,0.0,0.0,78,0.00,,---,0.00,VWS V14.01,2013-01-27 23:32:00,
2013-01-27 17:37:00,30.4,24.4,29.88,ESE,108,0.0,0.0,78,0.00,,---,0.00,VWS V14.01,2013-01-27 23:37:00,
2013-01-27 17:42:00,30.3,24.3,29.88,ESE,108,0.0,1.0,78,0.00,,---,0.00,VWS V14.01,2013-01-27 23:42:00,
2013-01-27 17:47:00,30.3,24.6,29.88,ESE,108,0.0,1.0,79,0.00,,---,0.00,VWS V14.01,2013-01-27 23:47:00,
2013-01-27 17:52:00,30.2,24.5,29.88,ESE,107,0.0,1.0,79,0.00,,---,0.00,VWS V14.01,2013-01-27 23:52:00,
2013-01-27 17:57:00,30.2,24.8,29.88,ESE,108,0.0,1.0,80,0.00,,---,0.00,VWS V14.01,2013-01-27 23:57:00,
2013-01-27 18:02:00,30.1,24.7,29.88,ESE,108,0.0,0.0,80,0.00,,---,0.00,VWS V14.01,2013-01-28 00:02:00,
2013-01-27 18:07:00,29.9,24.8,29.88,ESE,108,0.0,0.0,81,0.00,,---,0.00,VWS V14.01,2013-01-28 00:07:00,
2013-01-27 18:12:00,29.8,24.7,29.88,ESE,107,0.0,0.0,81,0.00,,---,0.00,VWS V14.01,2013-01-28 00:12:00,
2013-01-27 18:17:00,29.6,24.8,29.88,ESE,108,0.0,0.0,82,0.00,,---,0.00,VWS V14.01,2013-01-28 00:17:00,
2013-01-27 18:22:00,29.6,24.8,29.88,ESE,108,0.0,0.0,82,0.00,,---,0.00,VWS V14.01,2013-01-28 00:22:00,
2013-01-27 18:27:00,29.4,24.9,29.88,ESE,107,0.0,0.0,83,0.00,,---,0.00,VWS V14.01,2013-01-28 00:27:00,
2013-01-27 18:32:00,29.3,24.8,29.88,ESE,108,0.0,0.0,83,0.00,,---,0.00,VWS V14.01,2013-01-28 00:32:00,
2013-01-27 18:37:00,29.3,25.1,29.88,ESE,107,0.0,0.0,84,0.00,,---,0.00,VWS V14.01,2013-01-28 00:37:00,
2013-01-27 18:42:00,29.2,25.0,29.88,ESE,108,0.0,0.0,84,0.00,,---,0.00,VWS V14.01,2013-01-28 00:42:00,
2013-01-27 18:47:00,29.2,25.0,29.88,ESE,108,0.0,0.0,84,0.00,,---,0.00,VWS V14.01,2013-01-28 00:47:00,
2013-01-27 18:52:00,29.2,25.3,29.88,ESE,108,0.0,0.0,85,0.00,,---,0.00,VWS V14.01,2013-01-28 00:52:00,
2013-01-27 18:57:00,29.1,25.2,29.88,ESE,108,0.0,0.0,85,0.00,,---,0.00,VWS V14.01,2013-01-28 00:57:00,
2013-01-27 19:02:00,29.1,25.2,29.88,ESE,107,0.0,0.0,85,0.00,,---,0.00,VWS V14.01,2013-01-28 01:02:00,
2013-01-27 19:07:00,29.1,25.2,29.88,ESE,107,0.0,0.0,85,0.00,,---,0.00,VWS V14.01,2013-01-28 01:07:00,
2013-01-27 19:12:00,29.0,25.1,29.88,ESE,108,0.0,1.0,85,0.00,,---,0.00,VWS V14.01,2013-01-28 01:12:00,
2013-01-27 19:17:00,29.1,25.4,29.88,ESE,108,0.0,1.0,86,0.00,,---,0.00,VWS V14.01,2013-01-28 01:17:00,
2013-01-27 19:22:00,29.1,25.4,29.88,ESE,107,0.0,1.0,86,0.00,,---,0.00,VWS V14.01,2013-01-28 01:22:00,
2013-01-27 19:27:00,29.1,25.4,29.87,ESE,108,0.0,1.0,86,0.00,,---,0.00,VWS V14.01,2013-01-28 01:27:00,
2013-01-27 19:32:00,29.1,25.4,29.87,ESE,108,0.0,0.0,86,0.00,,---,0.00,VWS V14.01,2013-01-28 01:32:00,
2013-01-27 19:37:00,29.1,25.4,29.87,ESE,108,0.0,1.0,86,0.00,,---,0.00,VWS V14.01,2013-01-28 01:37:00,
2013-01-27 19:42:00,29.1,25.4,29.87,ESE,107,0.0,1.0,86,0.00,,---,0.00,VWS V14.01,2013-01-28 01:42:00,
2013-01-27 19:47:00,29.1,25.4,29.87,ESE,108,0.0,1.0,86,0.00,,---,0.00,VWS V14.01,2013-01-28 01:47:00,
2013-01-27 19:52:00,29.1,25.4,29.86,ESE,108,0.0,1.0,86,0.00,,---,0.00,VWS V14.01,2013-01-28 01:52:00,
2013-01-27 19:57:00,29.0,25.4,29.86,ESE,108,0.0,1.0,86,0.00,,---,0.00,VWS V14.01,2013-01-28 01:57:00,
2013-01-27 20:02:00,29.0,25.6,29.86,ESE,108,0.0,0.0,87,0.00,,---,0.00,VWS V14.01,2013-01-28 02:02:00,
2013-01-27 20:07:00,29.0,25.6,29.86,ESE,108,0.0,0.0,87,0.00,,---,0.00,VWS V14.01,2013-01-28 02:07:00,
2013-01-27 20:12:00,29.0,25.6,29.86,ESE,108,0.0,0.0,87,0.00,,---,0.00,VWS V14.01,2013-01-28 02:12:00,
2013-01-27 20:17:00,29.0,25.6,29.86,ESE,108,0.0,0.0,87,0.00,,---,0.00,VWS V14.01,2013-01-28 02:17:00,
2013-01-27 20:22:00,29.0,25.6,29.85,ESE,108,0.0,0.0,87,0.00,,---,0.00,VWS V14.01,2013-01-28 02:22:00,
2013-01-27 20:27:00,29.0,25.6,29.85,ESE,108,0.0,1.0,87,0.00,,---,0.00,VWS V14.01,2013-01-28 02:27:00,
2013-01-27 20:32:00,29.0,25.6,29.85,ESE,107,0.0,1.0,87,0.00,,---,0.00,VWS V14.01,2013-01-28 02:32:00,
2013-01-27 20:37:00,29.0,25.6,29.85,ESE,108,0.0,1.0,87,0.00,,---,0.00,VWS V14.01,2013-01-28 02:37:00,
2013-01-27 20:42:00,29.1,25.7,29.85,ESE,108,0.0,1.0,87,0.00,,---,0.00,VWS V14.01,2013-01-28 02:42:00,
2013-01-27 20:47:00,29.2,25.8,29.85,ESE,107,0.0,1.0,87,0.00,,---,0.00,VWS V14.01,2013-01-28 02:47:00,
2013-01-27 20:52:00,29.2,25.8,29.85,ESE,108,0.0,1.0,87,0.00,,---,0.00,VWS V14.01,2013-01-28 02:52:00,
2013-01-27 20:57:00,29.2,25.8,29.85,ESE,108,0.0,1.0,87,0.00,,---,0.00,VWS V14.01,2013-01-28 02:57:00,
2013-01-27 21:02:00,29.2,25.8,29.85,ESE,108,0.0,0.0,87,0.00,,---,0.00,VWS V14.01,2013-01-28 03:02:00,
2013-01-27 21:07:00,29.3,25.9,29.85,ESE,108,0.0,0.0,87,0.00,,---,0.00,VWS V14.01,2013-01-28 03:07:00,
2013-01-27 21:12:00,29.3,25.9,29.85,ESE,108,0.0,0.0,87,0.00,,---,0.00,VWS V14.01,2013-01-28 03:12:00,
2013-01-27 21:17:00,29.4,26.0,29.85,ESE,107,0.0,0.0,87,0.00,,---,0.00,VWS V14.01,2013-01-28 03:17:00,
2013-01-27 21:22:00,29.4,26.0,29.85,ESE,108,0.0,0.0,87,0.00,,---,0.00,VWS V14.01,2013-01-28 03:22:00,
2013-01-27 21:27:00,29.5,26.1,29.85,ESE,108,0.0,0.0,87,0.00,,---,0.00,VWS V14.01,2013-01-28 03:27:00,
2013-01-27 21:32:00,29.5,26.1,29.84,ESE,108,0.0,0.0,87,0.00,,---,0.00,VWS V14.01,2013-01-28 03:32:00,
2013-01-27 21:37:00,29.5,26.1,29.85,ESE,108,0.0,0.0,87,0.00,,---,0.00,VWS V14.01,2013-01-28 03:37:00,
2013-01-27 21:42:00,29.6,26.2,29.85,SE,142,0.0,1.0,87,0.00,,---,0.00,VWS V14.01,2013-01-28 03:42:00,
2013-01-27 21:47:00,29.5,26.1,29.85,SE,142,0.0,1.0,87,0.00,,---,0.00,VWS V14.01,2013-01-28 03:47:00,
2013-01-27 21:52:00,29.6,26.2,29.85,SE,142,0.0,1.0,87,0.00,,---,0.00,VWS V14.01,2013-01-28 03:52:00,
2013-01-27 21:57:00,29.6,26.2,29.85,SE,142,0.0,1.0,87,0.00,,---,0.00,VWS V14.01,2013-01-28 03:57:00,
2013-01-27 22:02:00,29.6,26.2,29.85,SE,142,0.0,1.0,87,0.00,,---,0.00,VWS V14.01,2013-01-28 04:02:00,
2013-01-27 22:07:00,29.6,26.2,29.84,SE,142,0.0,1.0,87,0.00,,---,0.00,VWS V14.01,2013-01-28 04:07:00,
2013-01-27 22:12:00,29.6,26.2,29.85,SE,142,0.0,1.0,87,0.00,,---,0.00,VWS V14.01,2013-01-28 04:12:00,
2013-01-27 22:17:00,29.7,26.3,29.84,SE,142,0.0,1.0,87,0.00,,---,0.00,VWS V14.01,2013-01-28 04:17:00,
2013-01-27 22:22:00,29.7,26.3,29.84,SE,142,0.0,1.0,87,0.00,,---,0.00,VWS V14.01,2013-01-28 04:22:00,
2013-01-27 22:27:00,29.7,26.3,29.84,SE,142,0.0,1.0,87,0.00,,---,0.00,VWS V14.01,2013-01-28 04:27:00,
2013-01-27 22:32:00,29.7,26.3,29.84,SE,142,0.0,0.0,87,0.00,,---,0.00,VWS V14.01,2013-01-28 04:32:00,
2013-01-27 22:37:00,29.7,26.3,29.85,SE,142,0.0,0.0,87,0.00,,---,0.00,VWS V14.01,2013-01-28 04:37:00,
2013-01-27 22:42:00,29.7,26.3,29.85,SE,142,0.0,0.0,87,0.00,,---,0.00,VWS V14.01,2013-01-28 04:42:00,
2013-01-27 22:47:00,29.7,26.3,29.85,SE,142,0.0,0.0,87,0.00,,---,0.00,VWS V14.01,2013-01-28 04:47:00,
2013-01-27 22:52:00,29.7,26.3,29.85,SE,142,0.0,0.0,87,0.00,,---,0.00,VWS V14.01,2013-01-28 04:52:00,
2013-01-27 22:57:00,29.7,26.3,29.85,SE,142,0.0,0.0,87,0.00,,---,0.00,VWS V14.01,2013-01-28 04:57:00,
2013-01-27 23:00:00,29.8,26.4,29.85,SE,142,0.0,0.0,87,0.00,,---,0.00,VWS V14.01,2013-01-28 05:00:00,
2013-01-27 23:01:00,29.8,26.4,29.85,SE,142,0.0,1.0,87,0.00,,---,0.00,VWS V14.01,2013-01-28 05:01:00,
2013-01-27 23:03:00,29.7,26.3,29.85,SE,142,0.0,0.0,87,0.00,,---,0.00,VWS V14.01,2013-01-28 05:03:00,
2013-01-27 23:08:00,29.7,26.3,29.85,SE,142,0.0,0.0,87,0.00,,---,0.00,VWS V14.01,2013-01-28 05:08:00,
2013-01-27 23:13:00,29.7,26.3,29.85,SE,142,0.0,0.0,87,0.00,,---,0.00,VWS V14.01,2013-01-28 05:13:00,
2013-01-27 23:18:00,29.6,26.2,29.85,SE,142,0.0,0.0,87,0.00,,---,0.00,VWS V14.01,2013-01-28 05:18:00,
2013-01-27 23:23:00,29.7,26.3,29.84,SE,142,0.0,0.0,87,0.00,,---,0.00,VWS V14.01,2013-01-28 05:23:00,
2013-01-27 23:28:00,29.7,26.3,29.84,SE,142,0.0,1.0,87,0.00,,---,0.00,VWS V14.01,2013-01-28 05:28:00,
2013-01-27 23:33:00,29.7,26.3,29.84,SE,142,0.0,0.0,87,0.00,,---,0.00,VWS V14.01,2013-01-28 05:33:00,
2013-01-27 23:38:00,29.8,26.7,29.85,SE,142,0.0,0.0,88,0.00,,---,0.00,VWS V14.01,2013-01-28 05:38:00,
2013-01-27 23:43:00,29.8,26.7,29.84,SE,142,0.0,0.0,88,0.00,,---,0.00,VWS V14.01,2013-01-28 05:43:00,
2013-01-27 23:48:00,29.8,26.7,29.84,SE,142,0.0,0.0,88,0.00,,---,0.00,VWS V14.01,2013-01-28 05:48:00,
2013-01-27 23:53:00,29.8,26.7,29.84,SE,142,0.0,1.0,88,0.00,,---,0.00,VWS V14.01,2013-01-28 05:53:00,
2013-01-27 23:58:00,29.7,26.6,29.84,SE,142,0.0,1.0,88,0.00,,---,0.00,VWS V14.01,2013-01-28 05:58:00,